Location: Chin
(49.7667°N, 112.4500°W)
Time: 11:56:57
(UTC+00:00)

Envisat - Pass Details

Date: 30 November 2021
Orbit: 764 x 766 km, 98.2° (Epoch: 25 January)

Event Time Altitude Azimuth Distance (km) Brightness Sun altitude
Rises 00:57:08 0° 212° (SSW) 3,222 7.1 -13.1°
Reaches altitude 10° 01:00:15 10° 232° (SW) 2,302 6.7 -13.5°
Maximum altitude 01:03:30 17° 272° (W) 1,872 6.0 -14.0°
Drops below altitude 10° 01:06:46 10° 312° (NW) 2,314 5.9 -14.5°
Sets 01:09:55 0° 333° (NNW) 3,246 6.4 -15.0°
